Myrtle Beach, SC

6:40 PM EDT on August 16, 2017 (GMT -0400)
Myrtle Beach International

Weather History for KMYR - August, 2014

Change the Weather History Date:

Saturday, August 16, 2014

  Actual Average Record
Temperature  
Mean Temperature 78 °F -  
Max Temperature 86 °F 84 °F 98 °F (1954)
Min Temperature 71 °F 70 °F 64 °F (2013)
Cooling Degree Days 14    
Growing Degree Days 28 (Base 50)    
Moisture  
Dew Point 71 °F    
Average Humidity 79    
Maximum Humidity 88    
Minimum Humidity 65    
Precipitation  
Precipitation 0.00 in - - ()
Sea Level Pressure  
Sea Level Pressure 30.00 in    
Wind  
Wind Speed 4 mph (SSE)    
Max Wind Speed 14 mph    
Max Gust Speed -    
Visibility 9 miles    
Events Rain , Thunderstorm    
Averages and records for this station are not official NWS values.
T = Trace of Precipitation, MM = Missing Value Source: NWS Daily Summary

Daily Weather History Graph

Daily Weather History Graph

Search for Another Location

Airport or City:

Trip Planner

Search our weather history database for the weather conditions in past years. The results will help you decide how hot, cold, wet, or windy it might be!

Date:

Astronomy

Aug. 16, 2014 Rise Set
Actual Time 6:38 AM EDT 8:00 PM EDT
Civil Twilight 6:12 AM EDT 8:27 PM EDT
Nautical Twilight 5:40 AM EDT 8:58 PM EDT
Astronomical Twilight 5:08 AM EDT 9:31 PM EDT
Moon No Moon Rise 1:01 PM EDT
Length of Visible Light 14h 14m
Length of Day
13h 22m
Waning Gibbous, 59% of the Moon is Illuminated
Aug 16
Waning Gibbous
Aug 17
Last Quarter
Aug 25
New
Sep 2
First Quarter
Sep 8
Full

Hourly Weather History & Observations

Time (EDT) Temp. Heat Index Dew Point Humidity Pressure Visibility Wind Dir Wind Speed Gust Speed Precip Events Conditions
12:15 AM 80.6 °F 83.9 °F 69.8 °F 70% 29.99 in 10.0 mi South 5.8 mph - N/A   Mostly Cloudy
12:35 AM 80.6 °F 83.9 °F 69.8 °F 70% 29.99 in 10.0 mi South 4.6 mph - N/A   Mostly Cloudy
1:15 AM 77.0 °F - 69.8 °F 78% 29.99 in 10.0 mi Calm Calm - N/A   Mostly Cloudy
1:35 AM 77.0 °F - 69.8 °F 78% 29.99 in 10.0 mi Calm Calm - N/A   Overcast
1:55 AM 75.2 °F - 69.8 °F 83% 29.98 in 10.0 mi NNW 3.5 mph - N/A   Overcast
2:15 AM 75.2 °F - 69.8 °F 83% 29.97 in 10.0 mi Calm Calm - N/A   Mostly Cloudy
2:35 AM 75.2 °F - 69.8 °F 83% 29.97 in 10.0 mi Calm Calm - N/A   Partly Cloudy
2:55 AM 75.2 °F - 69.8 °F 83% 29.97 in 10.0 mi Calm Calm - N/A   Clear
3:15 AM 73.4 °F - 69.8 °F 88% 29.97 in 10.0 mi Calm Calm - N/A   Clear
3:35 AM 73.4 °F - 69.8 °F 88% 29.98 in 10.0 mi Calm Calm - N/A   Clear
3:55 AM 73.4 °F - 69.8 °F 88% 29.98 in 10.0 mi Calm Calm - N/A   Clear
4:15 AM 73.4 °F - 69.8 °F 88% 29.98 in 10.0 mi Calm Calm - N/A   Clear
4:35 AM 73.4 °F - 69.8 °F 88% 29.99 in 10.0 mi North 3.5 mph - N/A   Clear
4:55 AM 73.4 °F - 68.0 °F 83% 29.99 in 10.0 mi North 3.5 mph - N/A   Clear
5:15 AM 73.4 °F - 68.0 °F 83% 29.99 in 10.0 mi Calm Calm - N/A   Clear
5:35 AM 73.4 °F - 69.8 °F 88% 29.99 in 10.0 mi North - - N/A   Clear
5:55 AM 71.6 °F - 68.0 °F 88% 30.00 in 10.0 mi Calm Calm - N/A   Partly Cloudy
6:45 AM 73.4 °F - 69.8 °F 88% 30.00 in 10.0 mi Calm Calm - N/A   Scattered Clouds
7:45 AM 75.2 °F - 69.8 °F 83% 30.01 in 10.0 mi Calm Calm - N/A   Mostly Cloudy
8:45 AM 80.6 °F 85.4 °F 73.4 °F 79% 30.02 in 10.0 mi SE 5.8 mph - N/A   Scattered Clouds
9:45 AM 82.4 °F 89.5 °F 75.2 °F 79% 30.03 in 10.0 mi SE 6.9 mph - N/A   Scattered Clouds
10:48 AM 86.0 °F 95.1 °F 75.2 °F 70% 30.02 in 10.0 mi ESE 10.4 mph - N/A   Mostly Cloudy
11:45 AM 78.8 °F - 66.2 °F 65% 30.03 in 5.0 mi SE 8.1 mph - N/A Rain , Thunderstorm Light Thunderstorms and Rain
12:45 PM 78.8 °F - 68.0 °F 69% 30.01 in 5.0 mi South 13.8 mph - N/A Rain Rain
1:45 PM 84.2 °F 90.9 °F 73.4 °F 70% 30.02 in 5.0 mi South 10.4 mph - N/A   Scattered Clouds
2:45 PM 80.6 °F 83.9 °F 69.8 °F 70% 30.02 in 8.0 mi South 11.5 mph - N/A   Mostly Cloudy
3:45 PM 82.4 °F 87.2 °F 71.6 °F 70% 30.01 in 4.0 mi South 11.5 mph - N/A Rain Rain
4:45 PM 84.2 °F 90.9 °F 73.4 °F 70% 30.00 in 10.0 mi SSE 11.5 mph - N/A   Scattered Clouds
5:45 PM 84.2 °F 89.6 °F 71.6 °F 66% 29.99 in 10.0 mi SSE 11.5 mph - N/A   Scattered Clouds
6:45 PM 82.4 °F 87.2 °F 71.6 °F 70% 30.00 in 10.0 mi South 9.2 mph - N/A   Clear
7:45 PM 80.6 °F 84.6 °F 71.6 °F 74% 30.00 in 10.0 mi South 9.2 mph - N/A   Clear
8:45 PM 80.6 °F 84.6 °F 71.6 °F 74% 30.00 in 10.0 mi South 9.2 mph - N/A   Clear
9:45 PM 80.6 °F 85.4 °F 73.4 °F 79% 30.02 in 10.0 mi South 6.9 mph - N/A   Clear
10:55 PM 78.8 °F - 73.4 °F 83% 30.02 in 10.0 mi Calm Calm - N/A   Clear
11:15 PM 78.8 °F - 73.4 °F 83% 30.02 in 10.0 mi Calm Calm - N/A   Clear
11:35 PM 78.8 °F - 73.4 °F 83% 30.02 in 10.0 mi SSW 3.5 mph - N/A   Clear
11:55 PM 78.8 °F - 73.4 °F 83% 30.02 in 10.0 mi Calm Calm - N/A   Clear